Regional Weather Roundup
Issued by NWS Cleveland, OH

Home | Current Version | Previous Version | Graphics & Text | Print | Product List | Glossary On
Versions: 1 2 3 4 5 6 7 8 9 10 11 12 13 14 15 16 17 18 19 20 21 22 23 24 25 26 27 28 29 30 31 32 33 34 35 36 37 38 39 40 41 42 43 44 45 46 47 48 49 50
000
ASUS41 KCLE 300310
RWRCLE
OHIO REGIONAL WEATHER ROUNDUP
NATIONAL WEATHER SERVICE WILMINGTON, OH
1100 PM EDT SUN MAY 29 2016

NOTE: "FAIR" INDICATES FEW OR NO CLOUDS BELOW 12,000 FEET WITH NO
SIGNIFICANT WEATHER AND/OR OBSTRUCTIONS TO VISIBILITY.

OHZ001>008-015>018-024>027-034-035-043-044-300400-
   NORTHWEST OHIO

CITY           SKY/WX    TMP DP  RH WIND       PRES   REMARKS
DEFIANCE       FAIR      74  55  51 NW7       30.00R
FINDLAY        FAIR      71  61  70 S7        29.98R
TOLEDO EXPRESS FAIR      74  57  55 NW8       29.98R
TOLEDO EXEC    FAIR      72  56  57 NW8       29.98R
LIMA           FAIR      72  63  73 CALM      30.00R
$$

OHZ009>014-019>023-028>033-038-089-300400-
   NORTHEAST OHIO

CITY           SKY/WX    TMP DP  RH WIND       PRES   REMARKS
CLE-HOPKINS    MOCLDY    66  61  84 S8        30.02S
CLE-LAKEFRONT  MOCLDY    68  61  78 SE13      29.98S
CUY CO. ARPT   MOCLDY    66  64  94 S12       30.01S
LORAIN-ELYRIA  FAIR      67  61  81 S12       30.00S
ASHTABULA      LGT RAIN  66  60  81 S12       30.04F
AKRON-CANTON   MOCLDY    68  59  73 NE5       30.07R
WOOSTER        LGT RAIN  66  63  90 CALM      30.07R
MANSFIELD      FAIR      65  63  93 S9        30.03S
YOUNGSTOWN     CLOUDY    68  63  84 W9        30.08R
$$

OHZ042-051>053-060>062-070>072-077>081-300400-
  SOUTHWEST OHIO

CITY           SKY/WX    TMP DP  RH WIND       PRES   REMARKS
CINC-COVINGTON FAIR      71  65  81 NW6       30.02S
CINC-LUNKEN    MOCLDY    70  70 100 CALM      30.01S FOG
HAMILTON       FAIR      70  65  84 CALM      30.02R
DAYTON         MOCLDY    69  65  86 SE7       30.03R
WRIGHT-PAT AFB CLOUDY    69  66  90 VRB1      30.01S
DAYTON GENERAL FAIR      68  62  81 NE5       30.01S
WILMINGTON     FAIR      66  63  90 S6        30.04R
$$

OHZ036-037-039>041-045>050-054>059-063>069-073>076-082>088-300400-
  CENTRAL AND SOUTHEAST OHIO

CITY           SKY/WX    TMP DP  RH WIND       PRES   REMARKS
COLUMBUS       TSTM      69  62  78 W9        30.05R
OSU AIRPORT    LGT RAIN  70  61  73 S12       30.03R
BOLTON FIELD   MOCLDY    66  62  87 CALM      30.05R
RICKENBACK AFB FAIR      66  64  94 SW6       30.05R
NEWARK         FAIR      72  64  76 CALM      30.04R
MARION         CLOUDY    68  63  84 S8        30.03R
LANCASTER      LGT RAIN  66  62  87 S7        30.05R
ZANESVILLE     FAIR      69  63  81 E3        30.05R
NEW PHILLY     FAIR      68  61  78 CALM      30.06R
$$




USA.gov is the U.S. government's official web portal to all federal, state and local government web resources and services.